Dewpoint
27 27 27 28 27 26 25 25 24 23 22 22 21 21 23 25 25 26 28 27 25 25 25 25 26 27 29 32 34 36 37 37 38 38 38 39 40 40 41 42 42 43 43 44 45 46 47 48 50 51 51 52 52 51 52 52 53 54 54 54 55 55 55 56 56 56 56 57 57 57 57 57 57 57 58 58 58 58 58 58 58 59 59 59 59 59
26 26 26 26 26 25 23 24 23 23 22 22 23 23 24 24 25 26 27 27 27 26 26 25 26 26 26 29 33 35 36 36 37 37 38 38 39 40 41 41 42 43 44 45 46 47 48 49 49 49 49 49 49 50 50 51 52 53 54 54 54 54 54 55 55 56 56 56 56 57 57 57 57 57 57 57 57 57 58 58 58 58 58 58 58 59
26 25 25 25 24 23 22 22 23 23 24 25 25 26 26 26 26 26 26 26 26 26 26 25 25 25 25 28 31 34 35 35 36 37 37 38 38 39 40 41 42 43 44 45 46 46 47 47 47 47 47 47 48 49 50 51 52 53 53 53 53 53 54 54 55 55 55 56 56 56 56 56 56 56 56 57 57 57 57 57 58 58 58 58 58 59
26 24 23 23 23 22 22 22 24 25 28 28 29 28 28 27 26 26 25 25 24 24 25 25 24 24 25 26 29 33 34 35 36 36 37 37 38 39 39 41 42 43 44 44 45 44 44 44 44 45 45 46 47 48 49 51 52 52 52 53 53 53 53 54 54 54 55 55 55 55 56 56 56 56 56 56 57 57 57 57 57 58 58 58 58 58
25 24 23 23 22 23 24 26 28 30 31 31 29 28 26 25 25 25 24 24 23 23 23 24 24 24 25 26 29 32 34 35 35 36 37 37 38 38 39 40 42 43 43 43 43 43 43 43 44 44 45 46 47 47 48 49 50 51 51 52 52 53 53 53 53 54 54 54 54 54 55 55 55 55 56 56 56 56 57 57 57 57 57 58 58 58
25 25 24 24 25 26 29 32 34 34 32 29 27 25 24 25 25 24 23 23 23 23 24 25 25 25 25 26 29 32 34 34 35 36 36 37 38 38 39 40 41 41 42 42 42 42 43 43 44 45 45 46 46 47 47 47 48 49 50 50 51 52 52 53 53 53 53 53 54 54 54 54 54 55 55 56 56 56 56 56 56 56 56 57 57 58
25 25 25 28 30 34 36 36 34 31 27 24 23 22 23 24 24 25 25 25 25 25 25 25 26 26 25 26 28 30 33 34 34 35 36 37 37 38 39 39 40 40 41 41 42 42 43 43 44 44 45 45 45 46 46 47 47 47 48 49 50 51 52 52 52 52 53 53 53 53 54 54 54 54 54 55 55 55 56 56 56 56 56 56 57 57
27 28 29 33 36 37 36 32 28 25 23 21 21 21 21 21 23 25 27 27 27 26 26 26 25 25 24 25 26 29 31 32 32 33 34 35 36 37 38 39 39 40 40 41 42 42 43 43 44 44 44 44 44 45 45 47 47 48 48 49 49 50 51 52 52 52 52 52 53 53 53 53 53 54 54 54 54 55 55 55 55 55 56 56 56 57
31 32 34 35 34 32 28 24 23 23 23 23 23 22 22 22 23 24 25 26 27 27 25 25 24 24 24 25 26 28 29 30 31 31 32 33 34 36 38 38 39 40 40 41 42 43 43 43 43 43 43 44 45 46 46 47 48 49 49 49 50 50 50 51 52 52 52 52 53 53 53 53 53 53 53 53 53 54 54 54 55 55 55 56 56 56
34 35 35 33 30 26 23 21 21 23 25 26 26 26 25 24 24 24 24 24 25 25 24 24 24 24 25 26 28 29 29 31 32 34 34 35 36 37 38 38 39 40 41 41 42 43 43 43 43 43 44 46 47 47 47 47 48 48 49 49 50 50 50 51 51 52 52 52 53 53 53 53 53 53 53 53 53 53 53 53 54 54 55 55 56 56
34 32 30 26 25 23 23 22 22 23 25 26 26 26 25 25 25 26 25 25 24 23 23 24 24 25 25 26 27 28 29 30 31 33 35 36 37 38 38 39 39 40 41 41 42 42 42 43 43 44 45 47 47 47 46 45 45 46 47 48 49 50 51 51 51 52 52 52 53 53 53 53 53 53 53 52 52 52 53 53 53 54 54 55 55 56
29 27 25 23 23 22 22 22 23 23 25 24 24 24 24 25 27 28 25 24 23 23 23 24 25 26 27 27 27 28 29 29 31 33 34 36 38 38 39 40 40 40 41 40 41 41 42 43 44 45 45 45 45 44 43 43 43 44 45 47 48 50 51 51 51 52 52 52 53 53 53 53 53 52 52 52 52 52 52 52 53 53 54 54 55 55
25 24 24 24 23 22 22 21 22 22 23 24 24 25 25 25 25 26 26 24 23 23 24 25 27 28 29 29 30 30 31 34 36 37 38 40 42 43 43 43 43 43 42 41 41 42 43 43 44 44 43 43 43 42 42 43 43 44 46 47 48 50 51 51 51 52 52 52 52 52 52 52 52 52 52 52 52 52 52 52 52 53 53 54 54 54
24 24 24 24 23 22 21 21 22 23 25 25 25 25 25 24 23 23 23 22 23 25 26 27 29 29 30 31 33 35 38 39 40 41 42 43 43 43 43 44 44 44 43 41 40 41 42 42 41 41 41 41 41 42 42 43 44 45 46 47 49 50 51 51 51 52 52 52 52 52 52 52 51 51 51 51 51 51 52 52 52 52 52 53 53 54
25 25 24 23 22 21 22 23 25 27 28 26 25 24 23 22 22 22 21 22 24 26 27 29 30 32 34 36 39 41 42 41 40 40 39 39 40 40 40 41 41 40 38 37 37 37 38 38 38 38 38 39 39 41 42 43 44 45 46 47 48 49 50 51 51 51 51 51 51 51 51 50 50 50 50 50 51 51 51 51 51 51 52 52 52 53
26 25 23 22 21 22 24 27 29 29 27 25 23 22 21 21 21 22 22 24 26 29 30 32 33 34 36 38 39 38 38 36 35 34 33 33 34 35 36 35 34 34 34 34 34 34 35 36 37 37 37 38 40 42 43 43 44 45 45 46 47 48 49 49 50 50 50 50 50 50 49 49 49 49 50 50 50 50 50 50 50 51 51 51 52 52
26 24 23 22 22 23 27 29 29 27 25 23 22 22 21 22 23 24 25 27 29 30 31 31 31 31 31 29 29 29 29 29 29 28 28 28 29 31 34 33 32 31 32 32 33 34 35 36 36 36 37 39 40 42 43 43 43 44 45 45 46 47 47 48 48 49 49 49 49 49 49 49 49 49 49 49 49 50 50 50 50 50 50 50 51 51
25 23 22 22 23 25 29 29 27 25 24 22 21 22 23 25 25 26 27 29 29 30 30 31 31 29 27 25 25 26 29 28 28 28 28 28 29 31 35 34 33 32 32 33 34 34 35 35 35 36 38 40 41 42 43 43 43 44 44 45 46 46 47 47 48 48 48 48 48 48 48 48 48 48 48 49 49 49 49 49 50 50 50 50 50 51
24 22 21 23 25 28 29 27 25 23 22 22 23 24 25 25 26 27 28 29 30 31 32 31 29 27 25 25 25 27 29 29 29 29 29 29 29 30 32 32 32 32 33 34 35 36 37 36 37 38 40 41 42 43 44 44 44 45 45 46 46 47 47 48 48 48 48 48 48 47 47 47 47 47 47 48 48 48 49 49 49 49 50 50 50 51
22 22 22 25 27 29 28 26 25 24 24 25 26 27 27 27 27 28 28 30 32 33 34 31 29 26 25 25 26 28 29 29 29 29 30 30 30 30 31 31 31 31 32 33 34 36 37 37 38 40 43 44 44 45 45 45 45 46 46 46 47 47 47 47 47 47 47 47 47 47 47 47 47 47 47 47 47 47 48 48 48 49 49 49 50 50
22 23 26 30 30 29 27 26 26 26 28 29 29 29 28 28 28 28 30 32 34 34 34 30 28 26 27 27 28 29 31 30 30 31 32 32 32 31 31 31 31 32 34 35 37 39 41 42 43 44 43 43 43 44 44 44 44 44 44 45 45 45 46 45 45 45 45 45 45 45 45 45 46 46 46 46 47 47 47 47 47 48 48 49 49 50
25 26 29 30 30 29 29 29 29 30 30 32 31 30 29 29 29 29 31 33 33 32 30 29 28 28 29 30 30 31 32 31 32 34 34 33 32 30 30 31 34 36 38 39 41 42 40 38 37 37 37 38 39 40 41 43 43 44 44 44 43 43 43 43 43 43 44 44 44 44 44 44 45 45 45 45 46 46 46 47 47 47 47 48 48 49
29 31 33 32 32 32 32 31 30 30 30 32 32 32 32 32 31 31 32 33 32 31 29 29 29 30 32 32 32 31 29 29 31 34 34 32 30 30 32 36 38 37 35 34 32 30 30 31 32 33 34 36 37 38 40 42 43 43 43 43 43 43 42 43 43 43 43 43 43 43 43 43 44 44 44 44 45 45 46 46 46 47 47 47 48 49
33 34 34 34 34 34 32 30 28 27 27 29 31 33 34 34 34 34 34 33 32 30 30 31 32 33 32 30 29 27 27 27 29 31 32 31 31 32 34 35 33 30 29 29 29 29 29 29 30 32 34 36 38 38 40 41 42 42 42 42 42 42 42 42 42 42 42 42 43 43 43 43 43 43 43 44 44 44 45 45 46 46 47 47 48 48
35 35 35 34 34 32 29 26 25 25 25 26 28 30 32 33 33 33 31 30 30 30 31 33 32 31 28 26 25 24 25 26 28 29 33 32 33 33 32 31 30 29 28 28 28 29 29 30 31 33 35 37 38 38 39 39 40 40 41 41 41 41 41 41 41 41 41 41 42 42 42 42 43 43 43 43 43 44 44 45 45 46 46 47 48 48
36 35 34 32 31 30 28 28 28 28 28 27 28 29 31 32 32 31 30 30 30 31 32 31 29 27 25 24 23 23 24 26 29 32 35 33 32 31 29 28 27 26 26 27 29 30 31 32 33 34 34 34 35 36 37 38 38 39 40 40 40 40 40 40 40 40 40 40 40 41 41 42 42 43 43 43 43 44 44 44 45 45 46 47 47 49
33 32 30 29 28 27 27 28 28 29 30 30 30 31 33 33 32 30 29 29 31 32 31 29 27 25 23 22 22 22 24 26 29 32 34 32 29 27 26 26 26 27 28 29 30 31 32 31 31 30 30 31 32 34 36 37 38 39 40 40 40 40 39 39 39 39 39 39 40 40 41 42 42 43 43 43 44 44 44 44 45 45 46 47 47 48
28 27 26 26 26 26 26 27 28 29 29 30 31 32 33 32 31 29 28 29 31 32 30 28 25 24 22 21 22 23 24 25 27 29 31 30 29 27 27 27 28 29 30 29 29 29 29 28 28 28 29 30 32 34 37 38 38 39 39 39 38 38 38 38 38 38 39 39 40 41 42 42 43 43 44 44 44 44 44 44 45 45 46 47 47 48
24 24 24 25 25 25 26 26 27 28 29 30 30 31 31 31 30 29 29 31 32 31 29 27 25 23 22 23 23 24 24 24 26 28 32 30 29 27 28 28 28 28 27 26 25 25 25 26 27 29 30 33 35 36 37 38 38 38 38 38 37 37 37 37 38 38 38 39 40 41 42 43 44 44 45 45 45 45 45 45 45 45 46 47 47 48
20 20 21 22 23 24 25 25 25 27 28 29 30 30 30 29 30 31 32 33 32 30 28 26 25 24 23 24 24 23 22 22 25 29 34 30 28 27 27 27 27 26 26 25 24 24 24 25 26 29 32 34 35 35 35 35 35 35 35 35 36 36 36 37 37 38 39 40 41 42 43 44 45 45 46 46 46 45 45 45 45 46 46 47 47 47
17 18 19 20 21 22 23 23 24 25 27 28 29 29 29 30 32 34 34 33 31 29 27 25 25 24 24 24 24 22 21 21 24 29 34 29 27 26 26 26 26 26 27 27 25 23 22 23 25 27 29 30 31 31 31 31 32 32 33 34 34 35 36 37 38 38 39 41 43 44 45 46 47 47 47 47 46 46 46 46 46 46 47 47 47 47
18 19 19 20 20 21 22 22 23 24 25 26 28 29 29 32 34 35 34 33 30 28 26 25 25 25 25 25 24 23 22 23 24 27 32 29 28 27 27 26 26 26 27 28 27 25 23 23 23 24 25 26 27 27 28 29 30 32 33 34 34 34 36 37 38 39 40 42 44 45 46 47 47 47 47 47 47 47 47 47 47 47 47 47 47 47
19 19 19 20 20 21 21 22 22 23 24 25 27 29 31 33 34 33 32 31 29 28 27 26 26 26 26 25 25 24 24 24 25 27 30 29 28 27 27 26 26 25 26 27 26 25 24 24 24 24 24 25 25 26 27 28 30 32 34 34 34 34 36 37 38 39 41 43 44 44 45 46 46 47 47 48 47 47 47 47 47 47 47 47 46 46
19 20 20 20 20 20 21 22 23 23 24 25 26 28 30 31 30 29 28 28 28 28 27 27 27 27 27 26 25 25 24 24 25 28 31 29 28 27 27 26 25 25 25 25 25 25 24 24 23 23 23 23 24 25 26 27 29 32 34 34 34 35 36 37 38 39 41 42 42 42 43 43 44 45 47 47 47 47 47 47 47 47 47 47 46 45
18 19 20 20 20 20 21 21 22 23 23 24 25 26 27 27 26 26 26 26 27 28 29 29 29 29 29 28 26 25 24 24 25 28 32 30 29 28 27 26 25 25 25 24 24 24 23 23 23 22 22 22 23 24 25 27 30 33 34 35 35 35 36 36 37 38 41 41 41 41 41 42 43 43 44 45 46 46 47 47 47 46 46 46 45 45
18 18 19 19 20 20 20 21 21 22 22 23 23 24 25 25 25 25 25 26 27 28 29 31 32 32 31 29 28 26 25 25 27 29 31 30 29 28 27 26 25 25 25 25 24 24 23 23 22 22 22 22 22 23 24 27 30 33 34 34 35 36 36 36 37 38 40 40 40 39 40 40 41 42 43 43 44 44 44 45 45 45 45 45 44 44
18 18 18 19 19 19 20 20 20 21 21 22 22 23 23 24 24 25 25 26 27 28 29 31 33 33 32 30 29 28 27 28 29 30 31 31 30 29 27 26 26 26 26 25 25 24 23 23 22 21 21 21 21 22 24 26 29 30 31 33 34 35 34 35 37 38 40 39 39 38 39 39 39 40 41 42 42 43 43 43 43 44 44 44 44 43
17 18 18 18 19 19 20 20 20 20 20 21 21 22 23 24 25 25 25 27 29 29 29 30 31 32 32 31 31 30 30 30 31 31 32 31 30 29 28 27 27 27 26 26 25 25 24 22 21 20 20 20 21 22 24 26 27 29 29 32 33 34 34 34 36 38 40 39 38 38 38 38 38 38 39 39 39 40 40 41 42 43 43 43 43 43
17 17 18 18 19 19 19 19 20 20 20 21 21 22 23 24 25 26 27 27 29 29 30 30 30 30 30 30 31 31 31 31 31 31 31 31 30 30 29 28 27 27 26 26 26 25 24 23 21 20 20 20 21 22 24 26 27 29 30 31 32 33 33 34 35 38 39 39 38 38 38 38 38 38 37 38 38 38 38 38 39 40 40 41 41 42
17 17 18 19 19 19 19 19 20 20 20 21 22 23 23 24 24 25 27 27 27 29 29 29 29 29 29 29 29 29 30 31 31 31 31 31 31 30 29 29 27 26 26 25 25 25 24 23 22 22 22 21 22 23 24 25 27 29 30 30 30 31 32 32 34 36 38 38 38 37 37 37 37 37 37 37 37 37 37 37 38 38 39 38 39 39
17 17 18 18 19 19 19 20 20 20 21 21 22 22 23 23 23 23 24 25 26 27 28 28 28 27 26 27 27 27 28 29 30 30 31 31 31 31 30 29 27 26 25 25 24 24 24 23 23 22 22 22 23 24 25 26 28 30 31 30 29 30 31 32 33 35 37 38 38 37 37 36 36 36 36 36 36 37 37 37 37 38 38 38 38 38
18 18 17 18 18 19 19 20 21 22 22 22 21 22 22 22 22 23 23 24 25 26 26 26 25 25 25 25 25 26 27 28 29 30 31 31 32 31 30 28 27 26 25 25 24 23 23 23 23 23 22 23 24 25 25 27 29 31 30 29 29 30 32 32 32 33 35 35 35 36 36 35 35 36 36 36 36 37 37 37 38 38 38 38 38 38
18 17 18 18 19 20 20 21 21 21 21 21 21 21 21 22 22 23 23 24 25 26 26 25 25 24 24 24 24 25 26 28 29 30 30 31 30 29 28 27 27 26 25 24 23 22 22 23 23 23 23 24 25 25 26 28 29 29 29 29 30 30 29 29 30 31 32 33 33 34 34 34 35 35 35 35 36 36 36 37 37 37 37 37 37 37
18 18 19 19 19 20 20 20 20 20 20 20 20 21 21 22 22 23 24 25 25 26 26 25 24 24 23 23 23 23 24 26 28 29 30 29 29 29 28 27 26 26 25 24 23 22 21 22 22 23 24 25 26 26 27 29 29 29 29 29 29 29 28 29 29 31 31 32 33 33 34 34 34 34 34 34 34 34 35 35 35 35 36 36 36 36
18 19 19 19 19 19 19 19 19 20 20 20 20 21 21 22 22 23 24 25 26 25 25 24 23 23 22 22 22 23 23 25 26 28 28 28 28 28 28 27 26 26 26 25 24 23 22 22 22 23 25 26 27 28 29 28 28 27 27 27 27 27 27 29 30 30 31 31 32 33 33 34 33 32 31 31 32 32 33 33 34 34 34 35 35 36
18 18 19 19 19 19 19 19 19 20 20 20 20 21 21 21 22 23 25 25 25 25 24 23 23 23 22 22 22 22 23 24 24 25 25 25 26 27 27 27 27 26 26 26 26 25 25 24 24 24 25 27 28 28 28 27 26 26 26 26 26 26 27 28 29 30 31 31 31 32 33 33 32 31 30 30 30 30 31 32 33 33 34 34 35 35
18 18 18 18 18 18 18 19 19 20 20 20 20 20 21 21 22 24 25 25 25 24 23 23 23 22 22 22 22 23 23 23 23 23 23 24 24 25 25 25 26 26 26 26 26 26 26 26 26 26 26 26 26 25 25 26 25 25 25 26 25 25 25 26 27 29 30 31 31 32 32 31 30 29 29 29 29 29 29 30 31 32 33 34 34 35
19 19 18 18 18 18 19 19 19 19 20 20 20 20 21 22 23 25 25 24 24 23 23 23 22 22 22 22 23 24 24 23 23 22 22 22 23 23 23 24 25 25 26 26 27 27 27 27 27 27 26 25 24 24 24 25 25 25 25 25 25 24 24 25 26 28 29 31 31 31 31 30 30 29 29 29 29 28 28 29 29 31 32 34 34 35
19 19 19 19 19 19 19 19 19 19 20 20 20 20 21 22 24 25 24 24 23 23 23 23 22 22 22 22 23 24 24 23 22 22 21 21 21 22 22 22 23 24 24 25 26 26 26 27 27 27 27 25 24 23 23 24 24 25 25 25 24 24 24 25 25 27 29 30 30 31 31 30 30 29 29 28 28 27 27 27 28 29 31 33 34 35
19 19 19 19 19 19 19 19 20 20 20 20 20 20 21 23 24 24 24 23 23 23 23 23 23 23 22 23 23 24 23 22 21 21 20 20 21 21 21 21 22 22 22 24 24 25 25 25 25 26 28 27 26 24 23 23 23 24 23 23 24 24 24 25 25 27 29 29 30 30 30 30 30 29 29 28 27 27 27 26 27 28 29 32 34 35
19 19 19 19 19 19 19 20 20 20 20 20 21 21 22 23 23 23 23 23 23 23 23 23 23 23 23 23 23 23 23 22 21 20 20 20 20 20 20 20 20 20 21 21 22 22 22 21 21 22 24 27 28 26 24 23 23 22 22 22 23 24 24 24 25 27 28 29 29 29 29 29 29 29 28 28 27 26 26 26 26 27 29 31 33 35